Location: Unspecified
(43.1763°N, 79.4719°W)
Time: 16:05:48
(UTC-04:00)

CZ-3 Stage 3 - Visible Passes

Search period start: 25 May 2017 00:00
Search period end: 04 June 2017 00:00
Orbit: 406 x 34792 km, 30.8° (Epoch: 24 May)

Date Brightness Start Highest point End Pass type
(mag) Time Alt. Az. Time Alt. Az. Time Alt. Az.
25 May 7.8 17:31:59 10° SW 22:04:05 56° SE 02:42:36 10° S visible
26 May 6.8 14:00:30 10° SSE 20:39:02 23° ESE 22:35:48 10° ESE visible
27 May 9.7 01:14:07 10° WNW 02:21:45 19° W 04:24:14 10° W visible
27 May 8.8 21:04:09 10° W 22:37:14 61° SW 05:08:14 10° WSW daylight
28 May 7.8 17:22:41 10° SW 21:50:41 55° SE 02:32:24 10° S visible
29 May 6.8 13:50:58 10° SSE 20:28:57 23° ESE 22:25:01 10° SE visible
30 May 9.7 01:04:45 10° WNW 02:10:59 19° W 04:10:21 10° W visible
30 May 9.2 20:54:48 10° W 22:26:06 60° SW 04:54:34 10° WSW daylight
31 May 7.8 17:13:23 10° WSW 21:37:09 54° SE 02:22:09 10° S visible
01 Jun 6.7 13:41:27 10° SSE 20:18:50 22° ESE 22:14:09 10° SE visible
02 Jun 9.7 00:55:25 10° WNW 02:00:13 19° W 03:56:23 10° W visible
02 Jun 9.2 20:45:27 10° W 22:14:57 60° SW 04:40:47 10° WSW daylight
